Mc Clellan-Palomar Airport Carlsbad US
ICAO: KCRQ
IATA: CRQ
Category: Medium
Scheduled Services: No

Elevation: 331 ft
TransAlt. 18000 ft.

Airport Communications:
SOCAL APP/DEP:127.3
ATIS:120.15
CLNC DEL:134.85
CTAF:118.6
GND:121.8
SAN DIEGO RDO:115.3
TWR:118.6

KCRQ Zoom In..

Runways:

(A) RW 06 length 4897 ft width 150 ft
---- / hdg 65

(B) RW 24 length 4897 ft width 150 ft
ILS 108.70 / hdg 245

Location; KCRQ
Day. 23 / Time. 02.53 Zulu
* Altimeter: 29.97
* Temperature: 22° c. 71.6°f.
* Wind from: 290° Speed 03 kn.
Dewpoint: 19° c.
Visibility: 10 Statute Miles.
Clouds: Clear (automated report).

KCRQ 230253Z AUTO 29003KT 10SM CLR 22/19 A2997 RMK AO2 SLP147 T02220194 53002


Wind From 290°
Speed 03 kn.

 
 
jpsmedia.com for Web Design worldairports.se 2018   terms of use